Theta_e
300 302 303 303 305 306 306 306 309 311 310 312 312 312 311 312 311 310 307 308 309 305 304 303 299 299 299 299 300 302 304 304 294 288 287 286 286 286 284 283 282 282 282
300 301 303 303 307 307 304 302 304 305 309 309 308 308 307 306 306 306 304 302 302 300 297 296 295 293 293 292 292 294 295 297 295 287 285 285 285 283 282 282 281 281 281
298 299 300 300 303 303 303 303 303 305 307 307 308 306 304 303 301 301 299 298 297 295 293 292 289 289 288 287 287 288 289 290 291 290 285 284 282 282 282 281 281 281 280
295 296 298 297 298 298 298 297 298 299 301 301 300 299 299 300 298 297 296 295 292 290 289 288 287 287 286 286 286 286 286 286 285 285 283 282 281 281 280 280 280 280 281
292 292 291 292 293 295 296 296 295 295 295 295 295 295 296 295 294 294 292 290 289 287 286 285 285 285 284 285 285 284 284 284 283 283 281 280 280 280 279 279 278 279 280
290 290 290 291 291 291 292 292 292 291 292 293 293 293 292 291 290 289 289 287 286 284 284 283 283 283 283 283 283 282 282 283 282 282 280 280 279 279 278 278 277 277 277
289 288 289 289 289 289 289 290 289 289 290 289 289 289 287 286 286 285 285 285 284 283 283 282 282 282 282 282 282 282 282 281 281 281 280 279 279 278 277 277 276 276 276
288 288 288 288 288 288 288 288 288 288 288 287 287 286 286 285 285 284 284 284 283 283 282 282 282 281 281 281 281 281 281 281 280 280 279 278 277 277 277 276 275 275 276
287 287 287 287 288 288 288 287 287 287 286 286 285 285 285 283 283 283 284 284 283 283 282 282 282 281 281 281 281 280 280 280 279 279 278 277 277 276 276 276 275 275 275
287 287 287 287 287 287 287 287 286 287 286 285 284 284 283 283 283 283 283 283 283 283 282 282 281 281 280 280 279 279 279 279 278 277 277 276 276 276 275 275 275 274 273
287 287 287 287 287 287 287 287 286 286 285 284 283 283 283 283 282 282 282 282 282 282 281 281 280 280 280 279 279 278 278 278 277 277 276 276 275 275 275 275 275 274 273
287 287 287 287 287 287 286 286 285 284 284 283 283 282 282 282 281 281 281 281 281 281 281 280 280 279 279 278 278 277 277 277 277 277 276 276 275 275 275 275 274 273 273
287 287 287 287 286 286 286 285 284 284 283 283 283 283 283 283 283 282 281 281 281 280 280 280 279 278 278 278 278 277 277 277 277 277 276 276 275 275 275 274 274 274 273
287 286 286 286 286 286 285 285 284 284 283 282 282 282 282 282 282 281 281 280 280 280 279 279 278 278 278 277 277 276 276 277 277 277 277 276 275 275 274 274 274 274 274
286 286 286 286 285 284 284 284 284 283 283 282 282 282 281 282 282 281 281 280 280 279 279 279 278 277 277 276 276 276 277 277 277 277 276 276 276 275 275 274 273 273 273
286 286 286 286 285 285 284 283 283 283 283 282 282 283 283 282 281 281 281 280 280 279 279 278 278 278 278 278 278 278 278 277 277 277 276 276 276 276 275 274 273 273 272
286 286 285 285 284 284 283 283 283 287 286 285 284 283 282 284 282 281 281 280 280 281 281 280 280 280 279 278 278 278 278 277 277 276 277 276 276 275 274 274 274 273 273
285 285 285 284 284 284 283 283 282 282 283 285 284 282 281 281 281 281 281 281 280 280 279 279 279 279 279 278 278 278 278 277 277 276 276 276 275 275 274 274 273 272 272
284 284 284 284 283 283 282 282 282 283 283 284 284 283 282 280 280 280 281 281 281 281 281 280 280 279 279 278 278 277 276 276 275 275 275 275 275 274 274 273 272 271 271
283 283 283 283 282 281 281 281 282 283 284 284 284 284 282 280 280 280 279 278 279 279 278 278 277 276 275 275 274 273 273 272 273 273 273 274 273 273 272 271 271 270 270
281 281 281 281 281 282 282 281 282 282 282 282 282 281 279 278 278 278 278 277 277 277 276 276 276 275 275 274 274 273 272 271 271 271 271 271 270 270 270 270 270 269 268
280 280 280 280 280 279 280 280 280 279 279 278 279 279 277 276 276 276 276 276 276 275 275 274 274 274 274 273 273 272 271 271 271 270 270 269 269 269 268 268 268 268 267
279 279 279 278 278 278 278 278 277 277 277 277 276 276 276 276 275 275 275 274 274 274 273 273 272 273 272 272 271 271 270 270 269 269 269 268 268 268 267 267 267 267 266
278 277 277 277 277 277 276 276 276 276 275 275 275 274 274 273 273 273 273 272 272 272 272 271 271 271 271 271 270 270 269 269 268 268 267 267 267 267 267 266 266 266 266
275 275 274 274 274 274 274 274 274 273 273 272 272 272 272 271 271 271 271 270 270 270 270 270 270 270 270 270 270 270 269 269 269 269 268 268 267 267 266 266 266 266 265
274 274 273 273 272 272 272 272 271 271 271 270 270 269 269 269 269 269 269 269 270 270 270 270 270 270 270 270 270 270 270 270 270 269 269 268 267 267 267 267 267 266 266
Wind_Speed
17 17 20 19 19 19 18 12 11 10 9 8 7 6 8 8 8 8 11 13 12 10 8 7 8 8 7 7 5 5 4 3 6 3 5 6 3 3 2 4 6 7 9
16 16 18 20 20 20 15 13 12 13 14 13 11 8 9 11 11 11 10 13 13 13 12 9 11 9 10 10 9 10 9 6 4 7 7 4 2 2 3 5 6 8 11
11 14 17 15 17 14 11 9 8 11 13 12 10 10 10 12 11 12 12 14 14 13 12 12 12 10 13 13 14 14 12 9 6 9 7 4 2 1 3 5 7 7 12
8 10 13 12 13 10 9 8 8 9 12 12 11 12 12 12 12 13 13 14 15 15 14 13 13 12 12 11 12 13 12 11 10 10 9 4 1 2 4 7 8 11 10
8 10 12 12 13 13 13 12 10 11 13 14 14 14 14 12 11 11 13 15 16 17 15 14 14 13 12 11 11 10 9 8 8 8 6 2 1 3 5 8 9 13 9
11 13 13 13 14 15 16 14 11 12 13 13 13 13 13 13 11 12 13 16 16 16 16 15 13 12 11 10 10 9 7 6 6 3 3 1 1 3 5 7 10 8 6
13 13 14 14 15 15 14 15 14 15 15 16 16 15 15 14 13 13 13 14 14 13 12 11 10 10 9 9 10 9 7 7 6 4 2 1 2 4 5 7 7 8 7
12 13 11 12 14 14 14 14 15 15 16 15 15 14 15 14 11 11 11 11 12 11 10 8 8 7 6 6 6 6 7 7 6 5 3 3 4 5 5 7 9 11 15
11 11 10 10 12 11 12 13 14 13 15 15 13 12 13 13 11 11 9 10 9 9 8 6 6 5 3 3 4 5 4 5 6 5 4 4 6 7 7 7 9 11 6
8 9 9 9 9 10 11 10 12 10 12 11 11 9 10 10 9 8 7 6 7 6 5 4 2 3 3 4 4 5 6 6 8 8 8 8 9 9 9 9 9 9 7
6 6 6 7 7 7 7 7 8 8 8 9 9 8 6 6 5 5 4 3 3 3 2 1 0 2 3 4 4 5 6 7 9 11 11 10 10 10 9 10 11 11 10
3 3 4 4 4 4 4 5 6 6 7 7 7 6 6 4 3 3 3 2 2 3 3 4 4 5 6 6 7 6 6 10 11 13 13 12 11 10 10 11 12 14 14
3 2 2 2 2 2 2 3 4 5 4 4 4 4 3 3 3 4 4 4 5 5 6 7 7 8 8 9 9 10 11 13 16 16 15 13 13 14 13 14 12 15 16
4 5 5 5 4 4 5 4 4 5 5 6 7 7 7 8 8 8 7 7 7 8 9 10 10 11 12 13 13 13 14 15 16 17 17 15 16 16 16 15 17 16 19
8 8 8 8 8 8 8 8 7 7 7 8 9 9 11 12 10 11 12 13 12 12 14 15 16 16 17 16 16 15 14 14 17 17 17 17 19 19 18 15 16 17 17
12 12 12 12 12 12 11 11 11 9 10 11 11 12 12 12 12 12 11 12 12 11 15 17 18 17 17 18 18 19 18 18 18 17 17 19 21 20 20 18 18 18 20
16 15 15 15 15 15 15 15 15 12 12 13 13 13 14 15 14 13 13 12 12 12 19 22 23 23 23 23 23 23 24 21 19 20 21 22 22 22 21 21 20 20 22
17 17 18 17 17 17 17 17 17 16 15 14 13 14 16 15 15 15 14 13 17 16 20 23 25 25 25 25 25 26 26 24 23 21 21 22 21 22 21 22 21 21 22
17 19 20 20 19 18 17 17 18 18 17 17 16 14 15 15 16 15 14 18 22 24 24 25 25 26 26 26 26 26 26 25 24 23 24 24 23 22 24 24 23 21 21
16 17 18 19 19 20 20 20 19 19 19 19 19 18 15 15 16 17 18 20 22 25 25 27 26 25 24 23 23 23 23 23 23 23 23 22 22 21 24 24 22 21 21
15 14 15 16 18 19 20 21 21 20 21 20 19 16 15 16 16 16 17 17 18 19 20 21 21 22 22 23 23 23 23 23 23 23 23 23 22 23 21 21 21 20 21
13 13 13 13 14 16 18 18 19 19 19 19 17 15 14 14 16 17 18 18 18 19 20 21 22 21 21 21 21 22 22 23 22 22 22 22 21 20 20 21 20 21 22
10 11 10 10 10 11 12 12 13 14 14 14 14 14 13 13 14 15 16 16 17 18 18 19 21 21 20 20 20 20 22 23 21 21 22 23 22 22 21 22 21 21 21
8 8 7 7 7 6 6 6 7 8 9 9 9 10 11 12 13 14 14 14 15 15 15 16 17 18 19 19 18 19 20 20 20 21 21 23 24 23 23 22 21 21 21
5 4 4 4 4 4 5 5 6 6 7 8 9 10 11 11 12 12 13 13 14 15 15 16 16 18 19 19 19 20 20 20 21 20 20 21 22 22 22 22 22 22 20
5 4 4 3 3 3 4 5 5 6 7 7 8 9 11 12 13 14 15 16 16 16 17 17 17 18 18 18 19 19 19 19 19 18 18 18 19 19 19 19 18 18 17
Wind_Direction
74 78 76 82 82 77 79 91 108 118 111 115 121 142 159 150 162 153 147 139 133 123 118 114 103 88 87 74 63 75 86 118 110 119 136 163 180 229 279 304 314 321 326
78 81 74 73 78 78 77 76 94 105 94 93 100 102 110 120 128 128 128 123 121 118 111 107 93 88 81 76 70 70 68 79 118 134 145 165 205 258 296 301 313 317 324
84 87 88 84 87 91 95 95 101 91 93 100 101 106 112 115 118 123 129 122 118 115 110 106 98 96 86 78 73 70 69 73 92 141 133 163 187 343 302 303 317 319 327
95 92 96 96 99 107 105 100 92 104 115 117 115 119 119 111 119 127 129 122 119 112 110 106 102 92 85 81 76 73 71 77 87 103 108 120 99 324 333 337 336 334 333
86 86 88 100 103 97 94 90 92 101 104 110 118 113 106 110 115 125 124 120 117 112 106 102 94 90 85 79 76 77 74 83 87 84 91 105 27 353 346 337 328 332 323
99 96 96 95 96 99 103 106 110 110 108 107 100 100 106 110 115 121 123 118 114 111 107 99 93 89 86 81 76 71 71 69 65 72 74 90 281 328 326 324 334 348 336
105 100 103 105 102 101 105 111 112 105 106 100 101 106 105 105 116 117 117 115 113 107 103 101 99 89 82 77 71 65 58 55 56 56 63 3 295 298 310 316 322 319 299
100 103 104 107 105 107 111 108 108 111 108 109 110 112 116 115 121 121 123 119 116 112 108 102 92 89 81 72 64 52 45 43 44 28 7 328 295 299 307 309 307 305 311
112 110 110 109 108 110 105 104 107 113 113 113 113 120 121 120 124 123 123 120 115 112 108 103 93 83 67 53 39 24 8 6 352 336 322 308 299 294 297 299 306 325 321
111 107 112 115 113 113 112 116 119 122 124 122 121 122 124 124 129 131 130 130 127 122 112 102 92 59 26 359 1 349 336 328 319 316 315 303 292 287 279 291 301 310 320
109 111 115 112 113 112 116 122 124 132 134 132 131 130 129 131 142 148 148 159 152 157 157 150 339 318 324 329 331 330 319 312 314 318 313 302 296 290 285 286 290 292 296
125 117 116 124 119 117 131 141 151 154 159 162 158 163 167 169 180 203 216 220 240 260 274 281 290 294 301 301 305 315 315 303 308 313 311 307 301 293 290 287 288 293 292
198 194 182 196 175 173 187 195 192 191 210 220 226 228 223 242 239 245 246 253 264 276 282 285 282 284 284 282 289 298 292 295 303 304 310 311 306 301 298 296 289 293 296
265 252 237 239 254 254 240 236 243 246 245 249 260 268 269 266 268 271 267 267 269 273 277 279 278 275 275 280 287 292 293 295 295 299 305 305 308 308 307 304 301 304 308
271 260 260 264 260 253 253 252 254 254 257 265 275 281 280 279 289 283 276 273 276 277 277 278 276 275 279 283 289 292 298 301 297 297 300 303 304 304 304 303 302 306 307
271 273 273 270 267 265 259 256 255 252 255 258 263 272 275 277 278 273 270 267 269 270 265 271 277 281 286 294 297 299 299 301 303 302 300 299 298 301 303 303 300 303 306
261 264 267 267 266 264 263 262 264 265 264 263 269 270 272 278 280 273 265 264 258 251 255 270 279 285 290 295 297 299 301 304 302 294 292 297 293 294 297 299 298 301 303
260 259 260 263 268 269 268 269 268 269 276 279 274 267 264 264 265 263 262 265 261 253 255 264 274 285 291 294 297 297 299 300 299 298 292 292 291 292 295 293 297 299 302
269 265 262 262 261 262 262 266 264 266 270 280 284 279 270 265 262 260 259 257 265 273 278 280 284 287 290 292 293 294 294 294 294 292 290 290 286 288 290 291 296 299 300
270 267 262 259 258 255 255 256 258 259 264 271 277 283 286 280 271 268 268 267 268 273 280 285 289 292 292 291 291 291 292 290 289 288 287 287 286 286 288 292 296 297 298
274 274 269 263 257 256 257 257 259 263 266 271 278 286 291 290 291 289 289 287 288 288 291 290 289 288 289 291 292 291 290 289 289 290 290 289 291 289 290 292 295 297 299
274 272 270 269 271 267 267 269 270 274 279 282 288 292 292 285 287 290 290 290 289 289 290 289 288 288 289 289 289 286 285 285 288 291 291 290 290 291 293 293 294 296 297
281 275 274 269 268 270 269 269 272 276 281 287 291 292 292 292 291 290 291 291 291 291 291 290 292 292 291 289 287 286 286 289 292 290 290 291 291 292 294 293 294 294 294
301 282 274 264 258 260 266 273 279 284 289 293 295 296 297 298 301 303 304 303 301 300 299 298 297 297 297 295 293 293 294 294 292 292 291 291 293 294 295 294 295 295 296
329 325 318 307 302 299 299 302 305 306 308 310 312 314 315 314 313 313 313 312 312 312 311 308 306 305 304 304 303 301 299 298 298 298 295 292 291 292 291 292 295 298 298
357 2 10 11 4 351 344 340 340 340 340 339 335 333 332 331 330 329 328 327 327 326 325 324 321 319 316 312 309 304 302 300 298 295 294 294 295 295 297 297 298 296 297